Погода в Магнитогорске

Погода в Магнитогорске : погода сейчас, прогноз погоды и архив. Всё, что Вы хотите узнать о погоде в Магнитогорске!

Хотите узнать прогноз погоды в Магнитогорске? Тогда Вам сюда: Погода в Магнитогорске

Поиск расширенной информации на нашем сайте:

Другие новости

Новости СМИ2

Главная страница сайта

Новости сайта

02.10.2013

Напоминаем, что на нашем новом сайте вы можете получить высокодетализированные прогнозы погоды по пунктам России, СНГ и мира (включающие важные для авиации метеовеличины, такие как направление и скорость ветра, видимость, явления погоды, количество и форма облачности, нижняя и верхняя граница облачности), а также ознакомиться с разнообразными материалами по авиационной метеорологии и подборкой полезных ссылок на эту тему.

Сайт Метеоцентр.Азия посвящён разработке технологий оптимизации авиаметеорологического обслуживания, включая проектирование и перспективное создание нескольких автоматизированных авиаметеорологических систем:
- система выпуска высокодетальных прогностических карт явлений погоды для нижнего воздушного пространства по России и ближнему зарубежью;
- система верификации прогнозов TAF (выпускаемых синоптиками официальных АМСГ РФ и ближнего зарубежья) и AUTOTAF (выпускаемых сайтом Метеоцентр.Азия) - выявление ошибок, онлайн-сопоставление с фактической погодой METAR, автоматическое внесение коррективов в прогнозы при резком отклонении фактической погоды от прогноза, подсчёт оправдываемости прогнозов по элементам и в целом;
- система обработки, анализа и отображения авиаметеорологической информации для применения провайдерами метеорологической информации.

Рекомендуем: Строительные компании проектно Строительные.

Погода в Магнитогорске - сегодня

Время (UTC), дата Ветер
(°,м/с) 
Видим.   Явления Облачность Т
(°С)
Тd
(°С)
f(%) Тe
(°С)
Pmin
(гПа)
dP
(гПа)
Po
(мм)
O2
(г/м3)
Тmin Tmax R s Состояние
почвы
18 24.04.17 180 (Ю) 5{12}  10 км    8/8 600 м 
[Sc]
+14.3 +3.4 48 +14  1004.2  -1.4  720  275           
21 24.04.17 220 (ЮЗ) 5{11}  10 км    8/8 600 м 
[Sc]
+12.7 +7.9 73 +12  1004.5  0.1  720  276           
00 25.04.17 220 (ЮЗ) 6-11{11}  10 км    4/4 600 м 
[Sc]
+8.6 +3.1 68 +7  1006.9  1.6  721  281           
03 25.04.17 250 (З) 6{11}  20000 м    3/3 600 м 
[Sc]
+8.5 +1.5 61 +7  1010  2.9  723  282  +6        сухая 
06 25.04.17 240 (ЮЗ) 5{11}  20000 м    3/0 средняя 
[Ac trans]
+12.4 +0.7 45 +12  1011.5  2.1  725  279           
09 25.04.17 260 (З) 4{11}  20000 м    ясно 
+16.6 -1.8 28 +17  1012.1  1.2  726  276           
12 25.04.17 240 (ЮЗ) 20000 м    ясно 
+18.4 -4.4 21 +19  1011.9  726  274           
15 25.04.17 280 (З) 20000 м    ясно 
+13.6 -4.1 29 +13  1014.2  1.4  727  279    +18.5       
18 25.04.17 330 (СЗ) 10 км    ясно 
+6.2 -2.4 54 +5  1016.9  1.4  728  287           
21 25.04.17 050 (СВ) 10 км    ясно 
+0.6 -3.3 75 1019.2  1.3  729  293           
00 26.04.17 330 (СЗ) 20000 м    ясно 
-0.2 -3.2 80 -1  1020.1  0.7  729  294           
03 26.04.17 010 (С) 20000 м    8/8 600 м 
[Sc]
+4.6 -2.4 60 +3  1020.2  0.9  730  290  -0.6        сухая 
06 26.04.17 020 (С) 20000 м    8/0 средняя 
[Ac trans]
+7.1 -3.5 47 +6  1019.6  -0.2  730  287           
09 26.04.17 020 (С) 20000 м    10/10 600 м 
[Sc]
+7.1 -2.8 49 +6  1020  0.4  730  287           
12 26.04.17 290 (З) 10 км  слаб. дождь  10/10 600 м 
[Sc]
+4.7 +1.6 80 +4  1021.2  0.8  731  289           
15 26.04.17 330 (СЗ) 10 км  слаб. дождь  10/10 600 м 
[Sc]
+4.4 +2.1 85 +3  1022.2  0.9  731  290    +8.7     
18 26.04.17 280 (З) 10 км  {дождь}  9/9 600 м 
+3.9 +1.6 85 +3  1023.4  1.1  732  291      750     
21 26.04.17 320 (СЗ) 10 км    ясно 
+3.4 -2.3 66 +1  1025.6  1.9  734  292           
00 27.04.17 340 (С) 20000 м    ясно 
+1.3 -3.9 68 +1  1027.8  1.8  735  295           
03 27.04.17 320 (СЗ) 20000 м    ясно 
+5.3 -3.2 54 +4  1029.6  2.4  737  292  +1.2    0.0    влажная 
06 27.04.17 330 (СЗ) 4{10}  20000 м    ясно 
+9.9 -4.5 36 +9  1029.4  0.6  737  287           
09 27.04.17 280 (З) 5{11}  20000 м    ясно 
+14.2 -5.2 26 +14  1027.7  -1  737  283           
12 27.04.17 270 (З) 4{11}  20000 м    ясно 
+15.5 -5.9 22 +15  1026.9  -0.6  736  281           
15 27.04.17 280 (З) 4{10}  20000 м    4/0 верхняя 
[Ci]
+13.6 -1.6 35 +13  1027.2  736  283    +16       
18 27.04.17 240 (ЮЗ) 10 км    ясно 
+7.2 +0.2 61 +7  1029  0.7  737  289           
Время (UTC), дата Ветер
(°,м/с) 
Видим.   Явления Облачность Т
(°С)
Тd
(°С)
f(%) Тe
(°С)
Pmin
(гПа)
dP
(гПа)
Po
(мм)
O2
(г/м3)
Тmin Tmax R s Состояние
почвы

Для получения пояснительной информации подведите курсор к названию столбца.

ПОГОДА в Магнитогорске - архив

Всё, что Вы хотите узнать о погоде в Магнитогорске - удобно и подробно!

Выберите нужную дату (начиная с 1 января 2015* года) и нажмите кнопку "Найти".
Будут отображены архивные сводки погоды по пункту Магнитогорск, начиная с указанной даты.


Отображать данные в формате CSV (для использования в таблицах Excel)


Внимание! Наш архив погоды предназначен исключительно для личного некоммерческого использования в познавательных целях. Если Вам необходимы официальные справки о состоянии погоды (для производственных, юридических, коммерческих и т.п. целей), обращайтесь в органы Росгидромета.

*Примечание: данная дата относится к архиву по метеостанциям СССР (Россия, СНГ, Балтия).
Архив по метеостанциям Зарубежной Европы и Азии (кроме Китая) хранится 10 дней, по другим регионам земного шара (Китай, Африка, Америка, Австралия, Океания) - 1 день.

Магнитогорск - район местоположения метеостанции


Название, широта, долгота, высота метеостанции:
Магнитогорск 53.3°ш. 59.1°д. 384 м над ур. моря [Российская Федерация]

Дополнительная информация

В oтличие oт бoльшинства пoгoдных сайтoв мы публикуем пoдрoбную метеoинфoрмацию в детальнoм прoфессиoнальнoм фoрмате.

Характеристики температуры и влажнoсти вoздуха измеряются на высoте 2 м в тени вдали oт зданий и деревьев.
Скoрoсть ветра измеряется на высoте 10 м (на урoвне рoста челoвека скoрoсть ветра ниже в 1.5-2 раза). Если метеoстанция нахoдится в гoрoде или в лесу, тo скoрoсть ветра занижена на 2-4 м/с пo сравнению с oткрытым местoм. Скoрoсть ветра над акватoриями крупных рек и oзёр, а также на вершинах хoлмoв на 2-5 м/с выше, чем в oбычных услoвиях.
Атмoсфернoе давление в разных тoчках местнoсти мoжет значительнo oтличаться oт давления на метеoстанции, в зависимoсти oт услoвий рельефа (при пoдъёме на 10 м давление пoнижается примернo на 1 мм рт.ст.).